Regional Weather Roundup
Issued by NWS

Home | Current Version | Previous Version | Graphics & Text | Print | Product List | Glossary On
Versions: 1 2 3 4 5 6 7 8 9 10 11 12 13 14 15 16 17 18 19 20 21 22 23 24 25 26 27 28 29 30 31 32 33 34 35 36 37 38 39 40 41 42 43 44 45 46 47 48 49 50
774
ASUS43 KLOT 231108
RWRIL

ILLINOIS REGIONAL WEATHER ROUNDUP
NATIONAL WEATHER SERVICE CHICAGO/ROMEOVILLE IL
500 AM CST MON JAN 23 2017

NOTE: "FAIR" INDICATES FEW OR NO CLOUDS BELOW 12,000 FEET WITH NO
SIGNIFICANT WEATHER AND/OR OBSTRUCTIONS TO VISIBILITY.

* THESE STATIONS ARE NOT UNDER NWS QUALITY CONTROL. THEY ALSO MAY NOT
  REPORT WEATHER SUCH AS PRECIPITATION OR FOG.

ILZ001-002-007-009-015-016-024-231200-
NORTHWEST ILLINOIS

CITY           SKY/WX    TMP DP  RH WIND       PRES   REMARKS
MOLINE         CLOUDY    37  33  85 NW8       29.78S WCI  31
STERLING*      CLOUDY    36  35  96 NW12      29.77R FOG     WCI  28
SAVANNA*       CLOUDY    36  35  96 NW5       29.76F FOG     WCI  32
$$

ILZ003-004-008-010-011-017-018-231200-
NORTH CENTRAL ILLINOIS

CITY           SKY/WX    TMP DP  RH WIND       PRES   REMARKS
ROCKFORD       CLOUDY    37  35  92 N9        29.76R FOG     WCI  30
FREEPORT*      CLOUDY    35  34  98 NW6       29.77S FOG     WCI  30
ROCHELLE*      CLOUDY    36  35  94 NW6       29.76R WCI  31
DE KALB*       CLOUDY    37  35  93 N8        29.74R WCI  30
PERU*          CLOUDY    37  34  90 N10       29.76R WCI  29
$$

ILZ005-006-012>014-019>023-231200-
NORTHEAST ILLINOIS

CITY           SKY/WX    TMP DP  RH WIND       PRES   REMARKS
CHICAGO-OHARE  CLOUDY    37  35  92 N14       29.72R WCI  28
CHICAGO-MIDWAY CLOUDY    39  34  82 N8        29.72R WCI  33
AURORA         CLOUDY    38  35  89 NW12      29.73R WCI  30
LANSING*       CLOUDY    37  37  97 N9G16     29.72R WCI  31
JOLIET*        CLOUDY    39  37  93 N5        29.73R
WAUKEGAN       CLOUDY    37  35  92 NW6       29.72R WCI  32
DUPAGE AIRPORT CLOUDY    38  34  85 N12       29.72R WCI  30
KANKAKEE*      CLOUDY    39  37  90 N10       29.72R WCI  32
WHEELING       CLOUDY    38  34  85 N7        29.74R WCI  33
MORRIS*        CLOUDY    37  36  93 NW6       29.73R FOG     WCI  33
ROMEOVILLE*    CLOUDY    38  37  99 N7        29.73R WCI  32
NORTHERLY ISL    N/A     38  34  85 N12         N/A  WCI  30
$$

LMZ740>746-231200-
SOUTHERN LAKE MICHIGAN

STATION/POSITION SKY/WX   TEMP    WIND        PRES    VSBY  WAVE
                          AIR SEA DIR/SP/G                  HT/PER
                          (F)     (DEG/KT/KT) (MB)    (MI)  (FT/S)
HARRISON CRIB              36     350/ 10/ 10   N/A
BURNHAM HARBOR             38     350/  8/ 14   N/A
CALUMET HARBOR             36     320/ 10/ 15 1006.0R
BURNS HARBOR               36     360/ 11/ 15 1006.4S
MICHIGAN CITY              36     330/ 16/ 17   N/A
$$

ILZ025>027-034>036-040-047-049-050-058-095>099-231200-
WEST-CENTRAL ILLINOIS

CITY           SKY/WX    TMP DP  RH WIND       PRES   REMARKS
QUINCY         CLOUDY    38  35  89 NW13      29.78F WCI  30
GALESBURG*     CLOUDY    35  35 100 NW7       29.77S FOG     WCI  29
MACOMB*        CLOUDY    36  36  98 NW10      29.79F FOG     WCI  29
JACKSONVILLE*  CLOUDY    37  35  92 NW12      29.77R WCI  29
PITTSFIELD*    CLOUDY    39  36  91 NW13      29.78S WCI  31
$$

ILZ028>032-037-038-041>044-048-051>054-059>061-231200-
CENTRAL ILLINOIS

CITY           SKY/WX    TMP DP  RH WIND       PRES   REMARKS
PONTIAC        CLOUDY    38  38 100 N10       29.74R WCI  31
BLOOMINGTON    CLOUDY    37  35  92 N14       29.74R WCI  28
DECATUR        CLOUDY    39  37  92 N17G26    29.73R WCI  30
PEORIA         CLOUDY    37  35  92 N8G18     29.76R WCI  31
LACON*         CLOUDY    37  36  95 N10       29.75S WCI  30
LINCOLN*       CLOUDY    39  37  93 N13G18    29.74R WCI  32
SPRINGFIELD    CLOUDY    39  36  89 NW14G21   29.76R WCI  31
TAYLORVILLE    CLOUDY    38  36  94 N15       29.75R FOG     WCI  29
$$

ILZ033-039-045-046-055>057-062-063-231200-
EAST-CENTRAL ILLINOIS

CITY           SKY/WX    TMP DP  RH WIND       PRES   REMARKS
CHAMPAIGN      CLOUDY    39  36  89 NW20      29.68S WCI  29
RANTOUL*       CLOUDY    40  38  93 N13       29.69S FOG
MATTOON        CLOUDY    40  37  89 N20       29.67S
PARIS*         CLOUDY    40  39  96 N15G21    29.66R FOG
$$

ILZ079-100>102-231200-
SOUTHWEST ILLINOIS

CITY           SKY/WX    TMP DP  RH WIND       PRES   REMARKS
ALTON          CLOUDY    38  36  90 NW6       29.76S WCI  34
BELLEVILLE     CLOUDY    40  40  98 NW14      29.74R
CAHOKIA*       CLOUDY    41  35  79 N12       29.76S
SPARTA*        CLOUDY    39  35  86 NW12G20   29.75R WCI  32
$$

ILZ064>066-069>071-074>076-080>082-084>086-088>090-092>094-231200-
SOUTH-CENTRAL ILLINOIS

CITY           SKY/WX    TMP DP  RH WIND       PRES   REMARKS
CARBONDALE     CLOUDY    40  37  89 NW13G22   29.71R
CAIRO*         CLEAR     40  35  82 NW13      29.68R
EFFINGHAM*     CLOUDY    41  40  97 NW17G23   29.70S FOG
MARION         CLOUDY    41  37  87 NW16      29.70R
MT. VERNON     CLOUDY    40  36  86 VRB6G16   29.69R
CENTRALIA*     CLOUDY    41  38  90 NW14G23   29.71R
SALEM*         CLOUDY    41  37  84 NW20      29.70S
METROPOLIS*    CLEAR     41  36  81 NW14G22   29.65R
$$

ILZ067-068-072-073-078-083-087-091-231200-
SOUTHEAST ILLINOIS

CITY           SKY/WX    TMP DP  RH WIND       PRES   REMARKS
LAWRENCEVILLE  CLOUDY    42  40  92 NW21      29.61R
FLORA*         CLOUDY    43  39  85 NW18      29.67R
FAIRFIELD*     CLOUDY    41  38  87 NW10G17   29.66R
HARRISBURG*    CLOUDY    42  38  86 NW12G17   29.66S
ROBINSON*      CLOUDY    40  39  94 NW16      29.63S FOG
CARMI*         CLOUDY    42  39  90 NW21G29   29.63R
$$

ABBREVIATIONS USED IN REMARKS
   TC - TEMPERATURE IN CELSIUS
  WCI - WIND CHILL INDEX
   HX - HEAT INDEX
  VSB - VISIBILITY
$$





USA.gov is the U.S. government's official web portal to all federal, state and local government web resources and services.